Showing default

YAOGAN-33, 47302

Orbit data source: Space-Track

YAOGAN-33, 47302 is a payload satellite owned by PLA SSF (CN) in SSO that was launched on Sun, 27 Dec 2020 UTC via a CHANG ZHENG 4C launch vehicle from the Jiuquan Satellite Launch Center, China (JSC). Payload-class satellites include a variety of spacecraft equipped with specific instruments for various scientific and technological missions. These include communications satellites like Starlink; space stations such as the ISS; scientific satellites like the Hubble; Earth observation satellites from companies like Planet Labs, Umbra, and HawkEye 360; GPS; miniature CubeSats for education and research; and military/defense satellites.

Loading next visibility...
Identifier
47302, 2020-103A
Orbit
SSO
Country
Flag of CNCN / PRC
Related business
Manufacturer
SAST
Mission
Operational Defense Radar Imaging
Bus & Motor
JB-9, Unknown motor
Mass
1,040 kg wet, 1,040 kg dry
Launch date (UTC)
2020-12-27 (5 years ago)
Launch vehicle
CHANG ZHENG 4C
Launch site
Jiuquan Satellite Launch Center, China (JSC)
Object type
Payload
Rocket body
Debris
Shape & HBR
Box + 2 Pan, Unknown HBR
Radar Cross Section
4.795 m², Large (>1 m²)

Expand to show TLE details & history
Last TLE update: 23 hours ago

TLE from 23 hours ago
0 YAOGAN-33
1 47302U 20103A   26172.54920660  .00000244  00000-0  61520-4 0  9990
2 47302  98.0414  53.9950 0004363 111.4669 248.6997 14.58883185291940
Epoch: 2026-06-21T13:10Z
TLE epoch observation values (Epoch: 2026-06-21T13:10:51.450Z)
Latitude
0.00004°
Longitude
-53.46726°
Altitude
700.894 km
Speed
7.505 km/s
True Right ascension
03h 35m 58s
True Declination
0° 00' 00"
Sunlit
Object was in daylight at epoch
Visualization orbit readout
Latitude
Unknown
Longitude
Unknown
Altitude
Unknown
Speed
Unknown
Apparent Right ascension
Unknown
Apparent Declination
Unknown
Sunlit
N/A
Visualization observer readout
Local Sidereal Time
23:08:42
Azimuth
Unknown
Elevation
Unknown
Doppler factor
Unknown
Orbital elements
Apogee altitude
696.943 km
Perigee altitude
690.772 km
Semi-major axis
7,071.995 km
Eccentricity
0.00044
Inclination
98.0414°
RAAN
53.995°
Arg. of periapsis
111.4669°
True anomaly
248.65313°
Mean anomaly
248.6997°
Eccentric anomaly
248.67641°
Mean motion
3.64947 °/min
Orbital period
98.64 mins
BSTAR
0.00006152
Loading maneuver chart data...
Computing Atmospheric mass density...
Loading historical data...
Loading historical data...
Loading historical data...
Loading historical data...
Loading historical data...
Loading historical data...
Loading historical data...
Other satellites on launch #103 in the year 2020 (2020-12-27 UTC)

Documentation

Showing up to 5 results
|